Weather in Vigoda

Ukraine / Ivano-Frankovsk District     48°55′40″N   23°55′09″E
В апреле 2022 года жителям России запретили посещать сайт meteo.paraplan.net по решению Генеральной прокуратуры. Аудитория сайта уменьшилась в 10 раз. Владельцы сайта не видят смысла в поддержке погодного сервера в таких условиях. Сайт будет закрыт в октябре.
temp.,
°C
wind,
m/s
gust,
m/s
humid.,
%
clouds,
%
prec.,
mm/h
press.,
hPa
HPBL,
m
25 september, sun
sun2500:00+6ssw238879 0.0 101938
03:00+6ssw228796 0.0 101827
06:00+7s228361 0.0 101735
09:00+10ssw2474100 0.0 1017137
12:00+11se1274100 0.0 1016111
15:00+15s1460100 0.0 1014527
18:00+12ssw1373100 0.0 1014139
21:00+12sw31064100 0.0 1014377
26 september, mon
mon2600:00+12wsw41166100 0.3 1012483
03:00+10sse2480100 0.3 101281
06:00+11s1274100 0.1 101145
09:00+10sse2688100 1.0 1010200
12:00+11sse2489100 0.8 1010193
15:00+12ssw2788100 1.9 1009416
18:00+12s128592 0.3 1008124
21:00+9s1190100 0.3 100815
27 september, tue
tue2700:00+10ssw1191100 0.0 100712
03:00+10se1191100 0.0 100511
06:00+10ne1197100 1.6 100316
09:00+10ssw1199100 7.9 100362
12:00+13ese2287100 1.1 1002339
15:00+15se127568 1.8 1001704
18:00+14wnw118055 1.9 100028
21:00+11wsw118874 2.4 100113
28 september, wed
wed2800:00+10sw229090 0.1 100221
03:00+10sw3492100 0.2 100269
06:00+10nnw2396100 0.2 1003140
09:00+9n1394100 0.2 1004208
12:00+12sse138138 0.0 1004505
15:00+16wsw57515 0.2 10031419
18:00+14sw236467 0.0 1003108
21:00+9ssw227986 0.0 100620
29 september, thu
thu2900:00+8ssw228499 0.0 100630
03:00+10s3379100 0.0 100655
06:00+11s2279100 0.0 100436
09:00+13s1176100 0.0 100539
12:00+14sw1278100 0.1 100585
15:00+16nnw0174100 0.1 1005177
18:00+14se1180100 0.1 100613
21:00+12ssw2289100 0.1 100821